Tracking 28790 objects as of 18-Apr-2024
HD Live streaming from Space Station
objects crossing your sky now

DELTA 1 DEB

Track DELTA 1 DEB now!
10-day predictions


NORAD ID: 8678
Int'l Code: 1975-004F
Perigee: 741.1 km
Apogee: 994.1 km
Inclination: 97.7 °
Period: 102.2 minutes
Semi major axis: 7238 km
RCS: 0.0564 m2 (small)
Launch date: January 22, 1975
Source: United States (US)
Launch site: AIR FORCE WESTERN TEST RANGE (AFWTR)

Note: This is SATELLITE DEBRIS
Your satellite tracking list
Your tracking list is empty




NASA's NSSDC Master Catalog

Two Line Element Set (TLE):
1 08678U 75004F   24109.54630637  .00000549  00000-0  28956-3 0  9996
2 08678  97.6826 208.3373 0174704 288.0966  70.1248 14.09682852527301
Source of the keplerian elements: AFSPC